Location: Unspecified
(0.0000°N, 0.0000°E)
Time: 12:58:25
(UTC+00:00)

ISS - Pass Details

Date: 23 May 2018
Orbit: 402 x 407 km, 51.6° (Epoch: 22 May)

Event Time Altitude Azimuth Distance (km) Brightness Sun altitude
Rises 05:09:00 0° 333° (NNW) 2,297 -0.1 -11.2°
Reaches altitude 10° 05:11:07 10° 339° (NNW) 1,443 -1.0 -10.7°
Maximum altitude 05:14:15 48° 55° (NE) 532 -2.7 -9.9°
Drops below altitude 10° 05:17:24 10° 130° (SE) 1,452 -0.6 -9.2°
Sets 05:19:31 0° 136° (SE) 2,314 0.3 -8.7°
